Southwest Georgia Regional Airport
KABY : now visible

Airfield :











YOU CAN JOIN US ON...

 
LOGIN :

Register | Disclaimer

   EN    FR    IT 

 









Legend :    VFR   Marginal VFR   IFR   Intensive IFR   Very Intensive IFR
Visi :
Ceiling :
>= 8 km
>= 3000ft
5 to 8 km
1000 to 3000 ft
1500m to 5 km
500 to 1000 ft
800 to 1500m
200 to 500 ft
< 800m
< 200 ft
Symbols :   Thunderstorms  Fog  Heavy snow  Heavy precipitations  Wind > 20 kt






- Airport Elevation : 197 ft
- IATA code : ABY


KABY - Southwest Georgia Regional

CURRENT METAR :
  • 140953Z AUTO 09004KT 10SM CLR 16/12 A3007 RMK AO2 SLP180 T01560122

EXPIRED METARs :
  • 140853Z AUTO 00000KT 10SM CLR 16/13 A3007 RMK AO2 SLP180 T01610133 56009
  • 140753Z AUTO 00000KT 10SM CLR 18/13 A3007 RMK AO2 SLP181 T01780133

TAF KABY
Valid from the 14 at 06:00 until the 15 at 06:00 UTC


140520Z 1406/1506 VRB04KT P6SM BKN250
FM141600 21010KT P6SM SCT100 BKN250
FM150000 23005KT P6SM BKN100
KZJX FIR / North America



MET'MAP, your aeronautical weather chart ! - Copyright ORBIFLY December 2007 - Disclaimer

ORBIFLY MET'MAP TEAM :

Programming & Development : Alexandra Zaïnal
Concept & original design : Baudouin d'Aumeries
Assistance for programming : Marc-Olivier Méhu
Technical & hardware support : Manuel Goepfert

Contact : metmap@orbifly.com




SOURCES & CREDITS :

   NOAA       Earth
Advisory